This is the latest recevied weather packets stored in our database for station/object AK4NG. If no packets are shown the sender has not sent any weather packets the latest 10 day(s).
| Time | Temp. | Humidity | Pressure | Rain* | Wind** | Luminosity | Snow |
|---|---|---|---|---|---|---|---|
| 1777653266 | 15° C | 87% | 1015.9 hPa | 0 mm | - | 176 W/m² | - |
| 1777652964 | 15° C | 92% | 1015.7 hPa | 0 mm | - | 193 W/m² | - |
| 1777652660 | 15° C | 91% | 1015.9 hPa | 0 mm | - | 175 W/m² | - |
| 1777652357 | 15° C | 91% | 1015.8 hPa | 1.27 mm | - | 164 W/m² | - |
| 1777652054 | 15° C | 89% | 1015.8 hPa | 1.27 mm | - | 145 W/m² | - |
| 1777651751 | 15° C | 87% | 1015.8 hPa | 1.78 mm | - | 208 W/m² | - |
| 1777651447 | 15° C | 86% | 1015.7 hPa | 3.05 mm | - | 205 W/m² | - |
| 1777651145 | 15° C | 88% | 1015.8 hPa | 1.27 mm | - | 169 W/m² | - |
| 1777650841 | 15° C | 90% | 1015.8 hPa | 1.78 mm | - | 130 W/m² | - |
| 1777650538 | 15° C | 89% | 1015.6 hPa | 3.56 mm | - | 156 W/m² | - |
| 1777650236 | 15° C | 88% | 1015.7 hPa | 1.78 mm | - | 130 W/m² | - |
| 1777649933 | 15° C | 86% | 1015.6 hPa | 1.78 mm | - | 100 W/m² | - |
| 1777649630 | 15° C | 86% | 1015.7 hPa | 0 mm | - | 101 W/m² | - |
| 1777649325 | 15° C | 87% | 1015.3 hPa | 0 mm | - | 99 W/m² | - |
| 1777649024 | 15° C | 88% | 1015.4 hPa | 0 mm | - | 94 W/m² | - |
| 1777648721 | 15° C | 87% | 1015.4 hPa | 0 mm | - | 90 W/m² | - |
| 1777648416 | 15° C | 88% | 1015.4 hPa | 0 mm | - | 102 W/m² | - |
| 1777648113 | 15° C | 87% | 1015.3 hPa | 0 mm | - | 116 W/m² | - |
| 1777647810 | 15° C | 88% | 1015.4 hPa | 0 mm | - | 102 W/m² | - |
| 1777647506 | 15.56° C | 89% | 1015.2 hPa | 0 mm | - | 130 W/m² | - |
| 1777647203 | 15.56° C | 90% | 1015.3 hPa | 0 mm | - | 106 W/m² | - |
| 1777646900 | 15° C | 91% | 1015.4 hPa | 0 mm | - | 131 W/m² | - |
| 1777646595 | 15° C | 92% | 1015.1 hPa | 0 mm | - | 152 W/m² | - |
| 1777646292 | 15° C | 93% | 1015.3 hPa | 0 mm | - | 103 W/m² | - |
| 1777645989 | 15° C | 94% | 1015.3 hPa | 0 mm | - | 68 W/m² | - |
* Rain latest hour (hover to see other rain measurements)
** Current wind speed in m/s (hover to see current wind gust speed)